Location: Browne Barr
(41.2080°N, 111.9480°W)
Time: 14:32:11
(UTC+00:00)

EO-79 - Visible Passes

Search period start: 03 August 2021 00:00
Search period end: 13 August 2021 00:00
Orbit: 590 x 609 km, 97.9° (Epoch: 02 August)

Date Brightness Start Highest point End Pass type
(mag) Time Alt. Az. Time Alt. Az. Time Alt. Az.
03 Aug ? 08:00:45 10° NE 08:02:34 20° ENE 08:02:34 20° ENE visible
03 Aug ? 09:36:24 10° NNW 09:39:18 25° NW 09:39:18 25° NW visible
04 Aug ? 08:11:26 10° NNE 08:13:34 24° NE 08:13:34 24° NE visible
04 Aug ? 09:47:38 10° NNW 09:50:18 20° WNW 09:50:18 20° WNW visible
05 Aug ? 08:22:11 10° NNE 08:24:33 29° NE 08:24:33 29° NE visible
05 Aug ? 09:58:59 10° NNW 10:01:17 16° WNW 10:01:17 16° WNW visible
06 Aug ? 08:33:01 10° NNE 08:35:32 33° NE 08:35:32 33° NE visible
06 Aug ? 10:10:34 10° NW 10:12:16 13° WNW 10:12:16 13° WNW visible
07 Aug ? 08:43:55 10° NNE 08:46:30 37° NNE 08:46:30 37° NNE visible
08 Aug ? 08:54:50 10° N 08:57:29 37° N 08:57:29 37° N visible
09 Aug ? 09:05:50 10° N 09:08:28 35° NNW 09:08:28 35° NNW visible
10 Aug ? 07:42:19 10° NE 07:42:43 11° ENE 07:42:43 11° ENE visible
10 Aug ? 09:16:52 10° N 09:19:26 31° NNW 09:19:26 31° NNW visible
11 Aug ? 07:52:46 10° NE 07:53:41 14° NE 07:53:41 14° NE visible
11 Aug ? 09:27:57 10° N 09:30:25 26° NW 09:30:25 26° NW visible
12 Aug ? 08:03:21 10° NE 08:04:39 17° NE 08:04:39 17° NE visible
12 Aug ? 09:39:05 10° NNW 09:41:23 22° NW 09:41:23 22° NW visible
